Regional Weather Roundup
Issued by NWS Goodland, KS

Home | Current Version | Previous Version | Text Only | Print | Product List | Glossary Off
Versions: 1 2 3 4 5 6 7 8 9 10 11 12 13 14 15 16 17 18 19 20 21 22 23 24 25 26 27 28 29 30 31 32 33 34 35 36 37 38 39 40 41 42 43 44 45 46 47 48 49 50

000
ASUS43 KGLD 281459
RWRGLD

GOODLAND FORECAST AREA HOURLY WEATHER ROUNDUP
NATIONAL WEATHER SERVICE GOODLAND KS
800 AM MST SUN DEC 28 2014

...OFFICIAL OBSERVATIONS...

CITY           SKY/WX    TMP DP  RH WIND       PRES   REMARKS
GOODLAND KS    MOCLDY    13   8  81 W3        30.01R
HILL CITY KS   PTCLDY    10   5  80 W3        30.13R
IMPERIAL NEB   PTCLDY     5  -1  76 NW5       30.03R
MCCOOK NEB     PTCLDY     8   4  83 W8        30.07S
AKRON CO       CLOUDY    16  11  80 SW5       29.94S
BURLINGTON CO  PTCLDY     9   4  80 W8        29.98R
LIMON CO       MOCLDY     9   5  84 N7        29.92S
$$

...UNOFFICIAL OBSERVATIONS...

CITY           SKY/WX    TMP DP  RH WIND       PRES   REMARKS
COLBY KS       CLEAR     12  10  92 W5        30.05S
NORTON KS      CLEAR     10   3  72 SW6       30.09R
SHARON SPRINGS   N/A     11   8  87 W6          N/A
KIT CARSON CO    N/A     10   6  84 MISG        N/A
YUMA CO          N/A     12   6  77 CALM        N/A
$$


USA.gov is the U.S. government's official web portal to all federal, state and local government web resources and services.